Miscellaneous Local Product
Issued by NWS Hastings, NE

Home | Current Version | Previous Version | Text Only | Print | Product List | Glossary On
Versions: 1 2 3 4 5 6 7 8 9 10 11 12 13 14 15 16 17 18 19 20 21 22 23 24 25 26 27 28 29 30 31 32 33 34 35 36 37 38 39 40 41 42 43 44 45 46 47 48 49 50
000
AXUS43 KGID 050002
MISGRI

GID CWA HOURLY WEATHER ROUNDUP
NATIONAL WEATHER SERVICE HASTINGS NE
700 PM CDT TUE AUG 04 2015

NOTE: "FAIR" INDICATES FEW OR NO CLOUDS BELOW 12,000 FEET WITH NO
SIGNIFICANT WEATHER AND/OR OBSTRUCTIONS TO VISIBILITY.

...SOUTH CENTRAL NEBRASKA...

CITY           SKY/WX    TMP DP  RH WIND       PRES   REMARKS
GRAND ISLAND   CLOUDY    68  62  81 S17       29.94F
HASTINGS       NOT AVBL
KEARNEY        CLOUDY    64  61  88 SE12      29.98R
ORD            CLOUDY    73  68  84 E15G21    29.93R
YORK           CLOUDY    79  68  69 S13G22    29.95R
AURORA         HVY RAIN  68  66  94 SW16      29.96F
LEXINGTON      LGT RAIN  65  64  96 W5        29.94R
HOLDREGE       LGT RAIN  63  61  93 E12       29.92F
HEBRON         CLOUDY    73  66  80 CALM      29.93F

...NEBRASKA PANHANDLE...

CITY           SKY/WX    TMP DP  RH WIND       PRES   REMARKS
CHADRON        PTSUNNY   79  60  52 SW8       29.96R
ALLIANCE       CLOUDY    74  62  66 S13       29.99S
SCOTTSBLUFF    PTSUNNY   71  50  47 E3        30.00S
SIDNEY         PTSUNNY   72  61  68 SE6       30.04R

...WESTERN AND NORTH CENTRAL NEBRASKA...

CITY           SKY/WX    TMP DP  RH WIND       PRES   REMARKS
VALENTINE      NOT AVBL
AINSWORTH      CLOUDY    75  65  71 E9        29.98S
ONEILL         CLOUDY    76  64  66 SE9       29.98R
BROKEN BOW     LGT RAIN  72  67  84 N5        29.94R
IMPERIAL       CLOUDY    73  61  65 CALM      29.97S
NORTH PLATTE   CLOUDY    68  63  84 N6        29.97R
MCCOOK         CLOUDY    65  63  93 CALM      29.94F

...EASTERN NEBRASKA...

CITY           SKY/WX    TMP DP  RH WIND       PRES   REMARKS
NORFOLK        CLOUDY    75  65  70 E8        29.97S
SO SIOUX CITY  PTSUNNY   76  61  59 SE10      29.97S
TEKAMAH        PTSUNNY   77  66  68 E6        29.96F
COLUMBUS       CLOUDY    73  64  73 E7        29.95F
ALBION         CLOUDY    73  65  78 E6        29.96F
OMAHA EPPLEY   PTSUNNY   77  67  71 NE9       29.96R
OFFUTT AFB     MOSUNNY   76  69  79 NE9       29.94S
MILLARD        PTSUNNY   79  70  73 E3        29.94F
LINCOLN        CLOUDY    82  71  69 SW13      29.92F
NEBRASKA CITY  MOSUNNY   79  69  72 S6        29.94S
BEATRICE       CLOUDY    75  66  73 S13       29.94F
FALLS CITY     CLOUDY    76  68  76 S12G23    29.95R

...NORTHERN KANSAS...

CITY           SKY/WX    TMP DP  RH WIND       PRES   REMARKS
GOODLAND       MOSUNNY   79  64  60 NE14      29.98S
HILL CITY      CLOUDY    70  67  90 SE6       29.93F
NORTON         CLEAR     64  61  88 NE8       29.93F
PHILLIPSBURG   RAIN      70  66  88 NE7       29.94F
SMITH CENTER   LGT RAIN  64  61  88 N15       29.94F
HAYS           PTSUNNY   84  63  48 SE13      29.90F
RUSSELL        PTSUNNY   84  65  52 SE12      29.90F
CONCORDIA      CLOUDY    73  70  90 E7        29.92F
SALINA         CLOUDY    85  68  56 SE9       29.91F
TOPEKA         LGT RAIN  73  72  96 E9        29.98F



USA.gov is the U.S. government's official web portal to all federal, state and local government web resources and services.